sat.trackr.live / text

‹ back to catalog

STARLINK-11517 [DTC]

NORAD 62559 · 2025-006F

PAYLOAD ACTIVE UNKNOWN

§ Identity

Operator
Country
US
Launch date
2025-01-10
Launch site
AFETR
Launch vehicle
Mass (kg)
RCS (m²)

Purposes: comms

External: N2YO · Heavens-Above · Gunter

§ Orbital elements

Epoch: 2026-05-25T01:36:43.900992Z

Period
91.66 min
Inclination
43.0028°
Eccentricity
0.0002830
Mean motion
15.71018535 rev/d
Perigee alt
354.1 km
Apogee alt
357.9 km
Semi-major
6,734.1 km
B*
1.6298e-3
RAAN
39.6008°
Arg perigee
237.5799°
Mean anomaly
122.4795°
Rev number
7,861

§ Raw data

STARLINK-11517 [DTC]1 62559U 25006F   26145.06717478  .00215830  00000+0  16298-2 0  99942 62559  43.0028  39.6008 0002830 237.5799 122.4795 15.71018535 78615

JSON: /api/v1/satellites/62559 · /tle

For live sub-satellite position, see the globe view (requires WebGL).

§ Visibility from observer

Set your observer location to see the next 7 days of passes ≥ 10°. The values pass through the URL so the page stays shareable.

No JS? Fill the form by hand. The geolocation button needs JavaScript.